Location: Newark
(35.2672°N, 80.7344°W)
Time: 00:06:10
(UTC+00:00)

Envisat - Visible Passes

Search period start: 28 January 2021 00:00
Search period end: 07 February 2021 00:00
Orbit: 764 x 766 km, 98.1° (Epoch: 27 January)

Date Brightness Start Highest point End Pass type
(mag) Time Alt. Az. Time Alt. Az. Time Alt. Az.
28 Jan 3.0 11:07:45 10° NNE 11:12:52 89° ESE 11:17:56 10° SSW visible
29 Jan 4.5 10:31:18 10° NNE 10:35:59 37° E 10:40:40 10° SSE visible
29 Jan 5.9 23:22:30 10° SW 23:26:23 22° W 23:30:18 10° NW visible
30 Jan 5.9 09:55:55 10° NE 09:58:56 16° E 10:01:57 10° SE visible
30 Jan 3.2 11:33:18 10° N 11:38:11 50° WNW 11:43:04 10° SSW visible
31 Jan 3.3 10:56:22 10° NNE 11:01:27 70° ESE 11:06:29 10° S visible
31 Jan 6.4 23:50:16 10° WSW 23:52:01 12° W 23:53:45 10° WNW visible
01 Feb 5.0 10:20:09 10° NE 10:24:32 29° E 10:28:54 10° SSE visible
01 Feb 5.4 23:10:34 10° SSW 23:14:54 28° W 23:19:16 10° NW visible
02 Feb 6.2 09:45:34 10° ENE 09:47:25 12° E 09:49:15 10° ESE visible
02 Feb 3.0 11:21:47 10° N 11:26:49 65° WNW 11:31:49 10° SSW visible
03 Feb 3.8 10:45:03 10° NNE 10:50:01 53° E 10:54:58 10° S visible
03 Feb 6.1 23:37:32 10° SW 23:40:29 16° W 23:43:28 10° WNW visible
04 Feb 5.4 10:09:06 10° NE 10:13:03 22° E 10:16:58 10° SE visible
04 Feb 3.6 11:47:29 10° N 11:52:05 35° WNW 11:56:39 10° SW visible
05 Feb 2.9 11:10:19 10° N 11:15:25 84° WNW 11:20:30 10° SSW visible
06 Feb 4.3 10:33:47 10° NNE 10:38:35 41° E 10:43:20 10° SSE visible
06 Feb 6.0 23:25:17 10° SW 23:28:59 20° W 23:32:42 10° NW visible
